Location: Zagreb
(45.8000°N, 16.0000°E)
Time: 00:19:06
(UTC+01:00)

Transit 2A Rocket - Pass Details

Date: 02 October 2020
Orbit: 586 x 916 km, 66.7° (Epoch: 28 October)

Event Time Altitude Azimuth Distance (km) Brightness Sun altitude
Rises 17:33:32 0° 226° (SW) 3,518 9.6 9.5°
Reaches altitude 10° 17:36:06 10° 231° (SW) 2,595 9.2 9.1°
Maximum altitude 17:42:04 55° 309° (NW) 1,089 6.3 8.0°
Drops below altitude 10° 17:48:01 10° 27° (NNE) 2,575 7.4 7.0°
Sets 17:50:33 0° 32° (NNE) 3,489 8.0 6.6°
